Location: Ladd Observatory
(41.8387°N, 71.3996°W)
Time: 18:30:07
(UTC-04:00)

ISS - Visible Passes

Search period start: 23 May 2017 00:00
Search period end: 02 June 2017 00:00
Orbit: 402 x 409 km, 51.6° (Epoch: 24 May)

Date Brightness Start Highest point End Pass type
(mag) Time Alt. Az. Time Alt. Az. Time Alt. Az.
23 May -0.6 01:27:29 10° NW 01:29:28 15° N 01:31:26 10° NE visible
23 May -1.3 03:04:06 10° NW 03:06:49 23° NNE 03:09:32 10° ENE visible
23 May -3.9 04:40:18 10° WNW 04:43:34 67° SW 04:46:48 10° SE visible
23 May -3.0 21:20:33 10° SSW 21:23:29 30° SE 21:26:26 10° ENE visible
23 May -2.2 22:56:51 10° W 22:59:56 36° NNW 23:03:01 10° NE visible
24 May -0.7 00:35:01 10° NW 00:37:07 16° N 00:39:13 10° NNE visible
24 May -0.9 02:12:09 10° NNW 02:14:33 18° NNE 02:16:58 10° ENE visible
24 May -3.4 03:48:15 10° NW 03:51:32 66° NNE 03:54:47 10° ESE visible
24 May -3.3 22:04:32 10° WSW 22:07:47 59° NNW 22:11:03 10° NE visible
24 May -0.8 23:42:26 10° WNW 23:44:48 18° NNW 23:47:10 10° NNE visible
25 May -0.7 01:20:06 10° NNW 01:22:14 16° N 01:24:22 10° NE visible
25 May -2.3 02:56:18 10° NW 02:59:24 39° NNE 03:02:30 10° E visible
25 May -2.9 04:32:58 10° WNW 04:35:48 27° SW 04:38:36 10° SSE visible
25 May -3.9 21:12:26 10° SW 21:15:43 76° SE 21:19:00 10° ENE visible
25 May -1.2 22:49:49 10° WNW 22:52:30 22° NNW 22:55:11 10° NE visible
26 May -0.6 00:27:53 10° NW 00:29:52 15° N 00:31:51 10° NE visible
26 May -1.6 02:04:21 10° NW 02:07:11 26° NNE 02:10:02 10° E visible
26 May -3.8 03:40:38 10° WNW 03:43:51 52° SW 03:47:01 10° SE visible
26 May -1.8 21:57:15 10° W 22:00:14 31° NNW 22:03:14 10° NE visible
26 May -0.6 23:35:28 10° NW 23:37:30 15° N 23:39:32 10° NE visible
27 May -1.1 01:12:22 10° NW 01:14:54 20° NNE 01:17:26 10° ENE visible
27 May -3.4 02:48:30 10° NW 02:53:53 20° ESE 02:55:04 10° ESE visible
27 May -1.8 04:27:40 11° SW 04:27:49 11° SW 04:28:59 10° SSW visible
27 May -2.7 21:04:50 10° WSW 21:08:02 48° NNW 21:11:16 10° NE visible
27 May -0.7 22:42:52 10° NW 22:45:07 17° N 22:47:23 10° NNE visible
28 May -0.8 00:20:20 10° NNW 00:22:33 17° N 00:24:47 10° NE visible
28 May -1.4 01:56:28 10° NW 01:57:28 18° NW 01:57:28 18° NW visible
28 May -1.0 21:50:12 10° WNW 21:52:46 20° NNW 21:55:21 10° NE visible
28 May -0.7 23:28:09 10° NW 23:30:11 15° N 23:32:12 10° NE visible
29 May -1.4 01:04:29 10° NW 01:06:13 23° NNW 01:06:13 23° NNW visible
29 May -1.5 20:57:34 10° W 21:00:27 27° NNW 21:03:20 10° NE visible
29 May -0.7 22:35:45 10° NW 22:37:45 15° N 22:39:45 10° NE visible
30 May -1.4 00:12:28 10° NW 00:15:08 22° NNE 00:15:21 22° NNE visible
30 May -0.8 21:43:10 10° NW 21:45:20 16° N 21:47:30 10° NNE visible
30 May -1.0 23:20:25 10° NNW 23:22:46 18° NNE 23:24:37 12° NE visible
31 May -1.0 00:56:32 10° NW 00:57:14 15° NW 00:57:14 15° NW visible
31 May -0.9 20:50:28 10° WNW 20:52:56 19° NNW 20:55:22 10° NNE visible
31 May -0.9 22:28:15 10° NNW 22:30:21 16° N 22:32:26 10° NE visible
01 Jun -1.7 00:04:30 10° NW 00:06:36 28° N 00:06:36 28° N visible
01 Jun -0.9 21:35:54 10° NW 21:37:54 15° N 21:39:53 10° NE visible
01 Jun -1.8 23:12:27 10° NW 23:15:14 24° NNE 23:16:01 22° NE visible
